Theta_e
324 329 328 329 329 325 325 324 322 325 326 326 321 316 323 322 312 318 339 343 334 340 349 349 353 356 356 357 359 361 363 362 361 360 359 361 362 362 360 357 356 357 354 352 350 346 345 343 340 339 337 336 337 337 338 337 336 335 334 333 334 333 330 329 328 328 327 326 325 324 324 323 322 323 322 322 323 322 322 322 322 321 321 322 322 322 322
322 326 328 329 327 323 325 324 324 325 326 326 324 324 327 326 324 333 345 343 343 350 351 355 358 355 352 355 357 359 363 362 361 361 360 361 361 361 360 357 355 354 352 351 348 344 343 340 338 337 336 336 337 336 336 336 335 335 334 332 332 331 329 329 328 327 327 325 325 325 325 324 323 323 323 321 321 321 321 321 321 322 323 323 323 323 323
317 324 328 326 326 323 321 321 327 328 326 326 326 327 327 326 330 339 343 339 346 353 355 361 362 358 357 359 359 364 365 362 360 360 359 361 360 359 359 357 354 352 351 350 346 342 340 338 336 336 336 336 335 335 335 335 334 334 333 332 331 329 329 329 328 328 327 325 324 325 325 324 323 325 322 319 320 322 321 321 322 323 322 323 324 324 325
312 321 324 322 324 323 318 318 324 325 324 324 325 327 329 327 329 334 335 332 341 352 355 358 361 358 357 359 360 362 359 356 354 351 353 358 360 359 359 357 353 351 350 349 344 341 339 337 336 336 337 337 335 335 335 334 333 333 332 332 330 329 330 329 328 327 326 325 324 325 325 324 323 325 322 319 320 322 321 321 323 323 323 324 325 326 326
311 320 323 321 320 317 313 317 325 327 327 328 328 329 333 334 333 332 329 334 346 353 353 355 357 355 355 358 358 358 358 356 350 347 350 355 357 358 358 356 352 350 349 346 342 340 339 338 338 337 337 337 336 335 335 334 333 332 331 331 329 329 330 328 327 327 326 325 325 325 325 324 323 323 322 321 321 322 322 322 323 323 324 325 326 326 327
310 317 322 320 315 311 314 324 331 331 330 330 330 330 332 336 339 337 334 343 350 350 350 352 353 351 350 352 353 355 358 355 350 350 352 353 356 358 357 354 351 348 347 345 342 341 340 339 338 337 337 337 336 335 334 333 332 331 330 330 329 328 328 327 327 326 326 326 326 325 325 324 323 321 321 321 322 321 322 322 322 324 324 325 326 326 326
313 317 318 313 311 315 323 331 333 330 332 332 329 332 334 334 337 339 340 345 349 348 349 351 352 352 349 349 352 353 353 353 354 354 352 352 355 358 356 355 351 348 347 345 343 342 341 339 338 337 336 337 337 336 334 332 332 331 331 330 329 328 329 328 326 326 326 326 325 324 324 324 323 322 321 322 322 322 322 322 323 325 325 325 326 326 327
316 314 312 312 318 324 329 331 333 331 332 332 327 333 340 338 333 337 341 345 350 351 351 352 354 350 348 351 357 354 352 354 353 349 349 350 352 355 357 356 352 349 346 344 343 342 341 339 338 337 337 338 337 336 334 333 332 331 331 330 329 330 329 328 327 327 326 325 325 324 324 324 324 323 322 322 322 322 322 321 323 325 325 326 326 326 326
318 311 310 316 322 325 328 330 332 333 333 333 330 330 336 340 335 338 344 348 351 353 354 355 354 351 352 357 359 355 351 353 351 346 347 349 352 357 357 354 352 348 345 345 344 342 340 339 338 338 337 337 337 335 334 333 332 332 331 331 330 330 328 327 327 327 326 325 324 324 323 323 322 322 322 322 322 323 323 322 323 324 325 326 326 325 325
318 313 311 315 316 317 324 328 332 334 331 333 333 329 331 340 340 339 346 353 354 356 356 353 351 351 354 356 357 356 352 350 349 349 349 350 354 357 355 352 350 347 345 346 344 342 341 340 339 339 338 337 337 335 334 333 332 332 332 331 330 330 328 327 327 327 325 325 324 323 323 321 321 322 322 322 322 322 322 323 323 323 324 325 325 325 325
316 313 310 314 314 317 328 332 333 333 330 333 334 325 327 343 346 341 346 352 353 354 353 351 351 350 352 352 353 354 350 346 349 352 351 351 353 355 355 352 349 347 346 345 343 342 341 340 339 339 338 338 337 336 334 333 333 334 333 332 330 329 327 327 327 326 325 325 324 322 322 321 321 322 322 321 321 321 322 323 323 323 324 324 324 324 324
314 314 312 313 317 324 334 333 330 331 334 332 327 319 324 344 345 339 345 349 350 351 349 350 351 352 352 352 351 350 348 347 351 351 350 351 353 355 355 352 350 347 345 343 343 342 341 340 340 339 338 339 338 335 334 333 334 334 333 333 331 329 328 327 327 326 324 324 324 323 323 322 321 322 321 320 321 321 322 322 323 323 324 324 324 325 325
314 314 312 314 321 330 335 332 332 334 332 328 322 320 333 346 343 341 345 348 348 349 347 348 352 353 353 350 348 349 349 349 351 351 352 353 354 354 353 352 350 347 345 344 343 342 341 341 340 339 339 339 337 336 335 334 335 334 334 333 332 330 329 328 326 326 325 324 324 324 323 322 321 321 321 320 321 321 321 322 323 323 324 324 326 327 326
315 316 314 313 321 335 336 331 334 332 328 327 329 337 345 345 341 343 347 347 349 348 346 350 353 353 354 350 346 348 348 347 350 352 353 355 354 353 352 351 349 348 347 345 343 342 341 340 339 340 339 340 338 336 335 335 335 334 333 334 332 331 331 329 327 326 326 325 325 325 324 323 322 321 321 320 321 321 321 322 323 323 324 325 326 327 327
317 315 313 313 321 338 337 331 338 339 336 336 343 344 341 341 343 345 345 346 349 348 349 353 353 352 354 351 348 351 352 350 349 350 353 355 353 352 351 349 348 348 347 346 344 343 341 340 340 340 340 340 339 337 335 335 335 335 334 334 332 331 331 329 329 327 326 325 326 325 324 324 323 322 322 321 321 321 321 322 323 324 324 326 326 327 327
319 313 318 324 331 339 336 333 340 343 344 347 346 340 339 340 342 344 346 349 349 347 350 353 354 355 357 355 353 354 353 352 349 350 353 354 353 352 351 349 348 346 346 347 346 343 342 341 340 340 341 341 339 337 335 334 335 336 336 334 333 332 331 330 329 328 326 325 325 324 324 324 323 322 323 322 321 322 321 322 323 324 325 326 327 327 328
333 330 336 341 340 340 334 334 340 341 339 342 340 338 343 345 342 344 350 351 347 345 350 353 355 358 358 356 354 352 351 351 350 350 351 352 351 351 350 348 348 346 345 346 345 343 342 341 340 341 341 340 339 337 335 334 335 337 336 334 333 332 331 330 330 329 327 327 326 325 324 324 323 323 323 322 322 322 323 323 324 325 326 327 327 327 328
339 341 343 340 337 336 334 332 337 338 337 340 339 339 345 347 342 343 347 347 345 347 349 351 355 356 353 351 352 350 349 349 350 349 350 350 350 350 349 348 348 347 345 345 344 343 342 341 341 342 341 340 340 338 336 336 336 337 335 334 333 332 331 331 330 329 328 328 326 325 324 324 323 323 323 323 323 323 323 324 324 326 327 327 327 327 327
334 336 342 339 334 335 337 337 338 338 336 340 342 342 345 345 343 343 345 343 344 348 348 347 351 353 351 350 350 347 347 350 350 349 350 349 348 349 349 348 348 347 345 344 344 343 343 342 342 342 341 342 340 338 338 338 337 335 333 332 332 332 332 331 331 329 329 328 327 326 325 324 323 322 322 323 323 324 324 324 325 326 326 326 327 327 327
334 337 342 341 338 340 341 339 341 339 338 340 342 342 343 344 344 343 343 342 343 346 346 345 348 350 350 350 349 345 347 351 352 351 350 349 348 349 348 347 347 347 347 345 344 343 343 343 343 342 342 342 340 339 339 337 335 334 332 330 331 332 332 331 331 330 328 327 327 326 325 324 323 323 322 322 323 323 323 323 325 325 325 326 326 326 327
336 339 342 342 342 344 343 339 339 340 341 342 345 344 342 342 343 343 342 341 340 342 345 344 344 346 348 349 346 344 349 352 352 351 352 350 349 348 348 347 346 347 347 346 344 343 342 343 342 342 342 342 340 340 339 337 335 334 332 331 331 332 332 332 331 329 328 328 327 327 326 324 323 323 322 322 323 323 323 323 324 324 325 327 327 327 328
332 339 345 345 344 345 342 338 338 341 341 342 346 345 343 343 345 343 340 340 341 342 343 343 344 347 349 350 347 347 350 352 352 352 352 350 349 349 348 347 347 347 346 346 344 342 342 342 342 341 341 341 340 340 339 338 336 335 334 333 333 333 333 332 331 330 329 329 328 327 326 324 323 322 322 322 323 324 324 326 326 324 324 325 326 327 327
336 340 345 345 344 343 341 340 341 342 342 342 344 344 344 345 344 341 339 340 343 344 344 344 346 347 348 348 347 348 350 352 352 351 351 350 349 348 347 347 347 346 345 345 344 343 342 342 341 341 341 340 340 340 339 338 338 336 336 335 335 334 333 332 331 331 330 329 328 327 325 324 324 324 323 322 322 322 323 324 325 324 324 324 325 325 326
342 341 341 342 342 341 342 343 343 342 341 341 344 344 344 343 342 341 341 343 344 344 345 347 347 346 346 347 349 349 350 351 352 350 349 348 347 347 346 347 346 346 345 344 344 343 343 342 342 341 340 340 340 339 339 338 338 337 336 336 335 335 333 332 332 331 329 328 327 325 324 322 323 323 323 323 323 323 322 322 322 323 323 323 323 323 322
344 341 341 343 342 341 340 340 341 342 343 345 346 347 347 345 344 343 344 343 343 344 346 346 347 348 348 348 349 349 349 349 349 349 348 348 346 346 347 346 345 346 345 344 343 343 342 342 341 341 340 340 340 339 338 338 338 337 337 336 335 334 333 333 331 329 328 326 324 324 323 323 322 322 323 324 325 326 325 324 324 324 323 322 320 319 320
345 344 341 340 340 339 336 337 340 341 341 345 348 349 346 346 346 344 343 343 344 347 348 346 345 346 348 348 348 349 348 348 348 348 347 345 344 345 345 345 344 344 343 343 343 343 342 341 341 340 340 340 339 338 338 337 337 337 337 336 335 334 334 333 330 327 326 325 324 324 324 324 324 323 323 324 325 326 327 327 328 327 326 325 323 323 323
345 343 339 339 343 344 338 338 342 342 342 345 347 344 342 343 343 343 344 344 345 347 348 347 346 345 345 346 346 346 346 346 347 346 344 341 341 342 342 343 344 343 342 342 343 341 341 341 340 340 340 339 338 337 337 336 337 337 336 336 335 334 332 329 328 327 326 325 325 325 325 325 325 325 325 325 326 326 327 327 328 328 328 327 327 327 327
343 342 338 341 349 351 345 341 344 344 344 346 344 341 341 342 342 343 344 344 346 347 346 345 345 346 346 345 345 345 345 345 344 344 343 340 339 339 342 343 343 343 342 343 342 341 341 340 340 340 339 337 337 337 336 336 336 336 336 335 334 332 328 326 327 327 326 325 325 326 326 326 326 326 327 327 326 326 326 327 327 327 327 327 327 327 327
340 340 340 341 347 347 343 343 346 346 344 344 343 341 341 341 342 342 343 343 345 347 347 345 345 345 345 344 344 345 345 344 343 343 341 340 339 340 342 342 343 342 343 342 341 341 341 340 340 339 339 337 337 337 336 337 336 335 335 334 331 329 328 327 326 327 327 326 326 326 326 327 327 327 327 327 326 326 326 326 327 327 326 326 326 326 327
340 340 341 343 343 340 340 344 347 345 343 343 342 342 342 343 342 343 343 343 344 346 348 348 347 346 344 343 344 344 343 343 344 342 340 340 340 340 341 342 342 342 341 341 340 341 341 341 340 339 338 337 337 336 335 335 334 333 333 331 330 329 329 327 327 327 326 327 326 327 327 327 327 327 327 326 326 327 327 327 327 326 326 326 326 326 326
342 340 338 340 340 339 345 350 349 344 343 342 342 343 343 343 344 343 344 345 346 346 348 349 348 346 344 345 344 343 342 343 343 342 341 340 340 340 342 343 342 341 342 341 341 340 339 339 338 337 335 333 332 332 332 332 332 332 332 330 329 329 329 328 328 327 326 326 326 326 327 327 326 326 326 326 326 327 327 327 326 326 326 326 326 327 327
344 341 338 339 339 340 348 352 349 344 344 342 342 344 343 342 342 343 344 345 344 344 346 347 346 345 345 345 343 343 343 344 344 342 341 342 341 341 342 342 341 342 343 342 341 339 338 336 335 334 332 331 330 330 330 331 331 331 331 330 330 329 328 327 328 327 326 326 326 327 326 326 325 325 325 325 326 326 326 326 326 326 326 326 327 327 328
347 348 343 341 341 344 349 349 346 344 343 342 342 345 344 341 341 342 343 344 344 343 344 347 347 345 345 345 344 343 344 344 344 343 342 342 341 342 341 341 341 342 341 340 339 338 337 336 335 334 333 332 331 330 331 332 331 331 331 331 330 330 328 327 326 326 326 325 324 325 326 326 325 324 324 324 325 326 326 326 326 326 327 327 328 328 328
345 347 345 342 342 345 348 348 345 342 342 342 343 344 343 341 343 343 343 343 343 344 345 347 347 346 346 345 344 344 343 344 343 343 343 342 343 341 341 341 341 341 340 338 338 337 336 336 335 335 334 333 332 331 331 332 332 332 332 331 330 330 330 329 326 325 325 324 323 324 324 325 325 326 326 326 326 326 326 326 326 327 328 328 328 328 328
339 340 341 340 341 342 343 344 343 341 340 342 341 341 342 342 343 344 344 343 344 345 346 347 347 346 345 345 345 344 342 342 342 342 342 343 343 341 340 340 340 340 339 337 338 337 336 335 335 336 335 334 332 331 331 331 332 332 332 331 330 331 331 331 329 327 326 324 323 323 323 324 325 325 326 326 326 325 325 326 327 327 328 328 328 329 329
338 340 343 343 341 340 340 341 340 339 340 342 342 342 343 343 342 343 343 343 342 343 344 345 345 344 344 344 344 343 340 339 339 341 343 344 344 342 340 340 341 340 339 338 338 337 335 335 336 336 335 334 332 331 329 328 330 332 332 332 331 328 328 329 330 329 327 325 323 322 323 323 325 325 325 325 325 325 326 327 327 327 328 328 329 329 328
340 342 346 346 343 342 343 345 344 340 340 344 346 345 344 343 342 342 342 343 343 343 344 343 343 342 342 343 342 339 338 337 337 339 343 344 344 343 342 341 341 340 340 339 338 337 335 335 335 335 335 334 332 329 327 327 328 329 330 330 329 327 327 327 326 327 327 326 324 322 322 323 324 325 325 325 325 325 326 327 327 328 329 330 329 328 328
342 344 346 346 344 343 345 346 344 340 343 347 348 347 344 342 342 342 341 342 343 344 341 341 342 341 340 340 338 337 337 337 337 341 344 344 344 344 343 342 342 342 341 340 338 336 334 335 334 332 331 331 330 328 327 326 325 325 328 329 327 327 327 326 326 326 326 325 325 324 323 323 324 324 324 324 325 326 327 328 329 329 329 328 328 329 330
346 347 347 346 345 346 346 346 343 342 344 348 349 347 345 342 341 341 341 342 342 342 340 340 341 341 339 338 338 338 336 337 339 343 345 345 345 344 344 343 342 342 340 339 337 335 334 334 333 330 329 330 331 328 327 326 324 323 325 327 327 327 327 326 326 325 325 324 324 324 324 324 324 324 324 325 325 327 329 330 330 329 328 327 328 330 331
349 349 349 346 345 346 348 347 346 345 345 346 348 347 345 342 340 341 340 340 340 340 340 340 341 340 339 338 338 337 337 338 341 342 343 344 345 344 343 343 342 340 338 337 336 335 333 333 333 331 331 331 332 329 327 325 325 324 323 325 326 326 325 324 324 324 323 324 324 323 324 324 324 324 324 326 328 329 330 330 329 329 328 329 331 332 333
349 349 350 349 348 348 347 346 348 349 349 347 347 345 343 341 341 341 342 341 339 339 341 341 341 341 340 339 338 336 337 339 339 340 342 343 343 342 342 340 339 338 337 335 335 335 334 332 332 332 332 332 331 330 327 325 324 326 326 325 325 325 325 324 324 323 323 323 324 324 325 324 324 325 327 329 330 331 330 329 329 331 332 332 334 334 333
344 344 345 347 349 350 348 347 350 351 350 348 346 344 343 342 341 341 342 341 340 340 342 342 341 340 339 339 337 337 336 337 339 340 341 341 341 341 340 338 337 336 334 333 334 334 333 331 330 331 331 332 332 330 327 325 325 328 328 327 326 327 326 325 324 325 324 324 325 325 325 325 327 329 329 329 330 330 330 330 332 333 333 333 334 333 332
340 340 341 345 348 350 349 350 352 353 351 348 345 343 343 342 340 342 343 343 341 343 345 343 340 339 339 338 336 336 336 337 339 339 338 338 338 338 336 336 336 334 331 329 332 333 331 329 328 329 329 331 331 331 329 328 329 330 329 328 327 327 327 327 327 327 327 326 326 327 328 329 330 330 330 330 331 331 331 332 333 333 332 332 332 331 329
340 340 341 345 348 349 351 352 353 352 351 348 344 342 342 341 339 342 345 343 341 343 346 343 339 338 337 337 336 336 337 337 336 335 334 333 335 335 335 335 336 335 331 329 330 331 330 329 329 329 328 328 330 331 331 331 331 330 329 328 328 328 328 328 328 328 327 328 330 331 331 331 330 330 331 332 333 332 332 332 332 331 330 330 329 326 325
341 342 343 343 346 349 353 353 351 350 349 347 343 341 341 341 340 343 346 345 343 344 346 343 339 338 336 336 336 337 337 337 335 333 331 332 334 335 335 334 335 334 333 331 330 330 331 331 331 330 328 326 327 329 331 330 329 329 329 329 328 329 328 328 329 330 331 331 332 333 333 332 331 332 333 333 333 332 330 329 328 327 327 325 322 320 319
340 344 345 345 346 348 351 352 351 349 348 346 344 342 342 343 343 342 343 344 344 344 345 343 339 337 337 336 336 336 337 336 333 332 332 334 335 334 334 334 333 332 330 329 329 331 333 332 330 329 327 324 324 326 328 328 327 328 329 329 329 330 330 331 332 332 332 332 332 333 334 333 332 333 333 332 331 330 327 325 324 323 321 318 316 314 314
344 348 349 349 348 349 351 352 352 351 350 349 348 345 345 348 348 345 344 345 346 345 344 343 341 338 338 337 336 335 335 334 332 330 332 334 334 333 333 334 333 331 329 329 330 332 332 330 328 328 327 325 323 325 328 329 329 329 330 331 333 333 333 333 332 332 333 333 333 333 333 332 332 331 330 328 327 325 322 320 320 318 315 312 312 312 311
347 350 350 350 349 351 352 352 352 352 352 350 349 349 348 349 348 348 348 350 350 346 343 341 341 339 338 336 336 334 333 332 332 331 331 332 333 334 334 333 333 332 331 330 330 332 332 329 328 328 327 326 326 327 329 330 330 331 333 335 334 333 333 334 334 333 334 334 333 332 331 328 327 326 325 323 320 318 317 316 314 312 310 309 310 310 310
347 349 351 352 354 354 355 354 353 352 350 348 349 350 348 345 345 346 348 350 351 348 343 340 341 341 338 336 336 335 332 332 333 334 332 331 332 333 334 332 332 333 331 330 331 333 333 330 328 328 328 327 327 329 331 332 332 333 333 333 333 333 334 335 335 334 332 331 330 327 325 323 321 320 319 317 316 315 313 311 309 308 308 309 310 310 310
350 352 354 355 356 356 354 352 349 347 347 347 348 348 346 343 342 342 343 344 345 345 342 340 340 341 339 337 337 336 333 332 333 333 333 331 331 333 334 333 332 332 331 330 332 335 334 332 329 329 329 328 329 332 334 334 334 333 332 333 334 333 332 332 331 329 327 325 324 322 321 319 318 317 315 313 312 311 308 306 306 307 308 309 309 309 309
354 356 355 355 354 353 350 347 345 345 345 346 348 348 347 346 343 341 340 340 341 341 340 340 340 340 339 337 337 335 334 333 333 333 333 333 333 334 335 334 333 333 332 331 333 335 336 334 331 330 330 331 333 336 336 336 334 334 334 334 333 330 328 327 325 324 323 321 319 318 316 315 314 313 312 310 309 306 305 305 307 309 309 309 309 309 309
355 354 353 352 351 349 347 347 347 347 347 348 348 349 349 346 342 342 341 342 340 338 338 339 339 339 337 336 335 334 335 333 333 333 333 332 332 333 334 334 334 334 333 331 331 333 335 334 334 334 334 335 337 337 336 335 335 334 332 331 328 326 324 323 322 320 319 318 316 314 313 313 312 311 309 307 305 305 306 308 309 309 308 308 309 308 308
Wind_Speed
12 14 14 11 8 8 8 8 5 6 8 6 5 7 8 10 7 4 11 13 11 6 4 4 3 2 2 2 2 2 4 5 5 6 8 8 8 8 9 9 8 8 9 9 11 14 15 17 21 25 28 26 25 25 24 21 21 23 27 27 23 19 20 21 19 17 17 17 15 14 14 15 13 12 13 14 13 13 8 7 6 5 6 4 2 5 6
12 14 18 14 8 9 10 9 8 9 9 8 8 7 7 8 6 12 15 12 9 5 3 3 3 3 3 3 4 5 4 4 4 4 7 9 9 8 8 10 9 8 9 10 13 16 17 17 21 26 27 25 23 22 23 21 19 20 23 22 19 19 21 20 18 18 17 17 16 14 14 15 11 10 13 12 12 13 8 7 5 3 2 3 4 3 4
11 14 17 13 8 11 11 7 8 10 8 9 12 11 8 8 7 13 13 8 7 4 2 2 3 3 3 5 6 8 8 7 6 3 2 6 8 8 8 10 10 10 10 10 12 15 17 20 23 24 22 21 21 22 22 20 19 22 21 18 18 21 20 18 18 19 17 16 16 14 15 15 11 10 13 12 10 13 9 6 5 4 2 3 4 3 2
10 12 16 13 9 10 13 10 7 7 7 7 10 10 8 8 6 9 9 5 3 2 2 2 2 1 4 7 7 7 9 10 10 8 5 3 6 8 8 10 12 11 10 10 12 13 16 21 23 20 18 19 20 21 19 16 18 20 18 16 19 20 18 18 19 17 15 16 16 15 15 14 11 10 11 11 9 10 10 8 5 5 5 4 4 4 4
9 11 12 9 6 8 9 7 6 8 7 6 8 8 4 8 9 6 4 2 3 5 5 3 3 3 6 7 5 6 8 5 3 4 8 8 6 8 8 12 13 11 11 13 14 15 16 17 18 18 18 19 19 20 20 18 18 17 15 16 19 18 16 18 18 16 16 16 15 15 14 13 12 10 10 10 9 7 8 9 7 6 5 5 4 4 4
9 11 5 2 5 7 2 3 5 7 8 7 8 7 4 10 8 2 1 2 6 5 3 2 3 5 6 5 4 6 7 6 4 6 10 9 7 7 8 12 14 13 13 15 16 17 16 15 17 18 19 19 19 20 21 20 18 16 15 16 17 16 16 17 17 15 16 17 15 14 14 13 13 12 10 10 10 8 8 8 7 7 6 5 6 5 4
7 7 4 4 7 4 1 1 2 1 5 8 9 6 5 5 6 8 5 5 7 5 4 6 6 7 6 5 5 5 5 6 4 7 7 4 4 5 8 11 14 15 17 18 17 16 16 18 20 21 20 19 19 20 21 20 17 16 15 15 15 15 16 16 16 15 16 17 15 14 14 13 13 12 10 10 11 10 10 9 8 8 7 6 7 6 5
6 5 5 6 2 0 4 6 1 2 4 7 6 5 7 8 2 5 5 6 7 6 8 9 8 7 5 4 5 4 3 1 4 6 3 3 4 6 8 11 15 19 21 20 19 18 18 19 21 21 21 21 20 20 20 18 17 16 16 15 15 15 15 15 15 15 16 16 15 14 14 13 13 13 11 10 10 10 9 9 10 11 9 7 7 7 6
6 6 5 3 2 0 6 5 2 4 4 5 5 2 2 6 7 7 6 8 8 7 9 9 7 6 3 2 3 3 2 4 6 3 3 3 3 6 9 14 19 21 21 21 20 20 20 20 21 22 22 22 21 21 20 18 17 17 16 15 15 14 15 15 14 15 16 15 15 15 14 14 14 12 11 11 10 8 8 9 9 10 9 9 9 8 7
6 6 6 5 2 2 5 4 3 5 3 6 6 2 2 6 9 8 6 7 8 8 9 8 5 3 2 2 1 2 4 4 2 3 6 4 2 7 11 18 22 20 19 19 20 20 20 21 23 23 23 23 21 21 20 19 18 17 15 15 15 15 15 15 15 15 15 14 15 14 14 15 14 11 11 12 10 9 10 10 8 7 7 8 8 8 7
7 6 6 6 4 3 4 6 8 8 3 4 5 3 1 3 5 7 7 8 9 9 9 7 5 2 0 1 1 1 2 3 6 7 7 4 3 9 15 20 22 20 19 19 19 20 21 22 24 25 25 24 22 21 21 20 18 17 16 16 16 16 17 16 16 16 16 16 17 16 14 12 11 11 12 12 11 10 10 9 8 8 8 8 8 10 10
7 6 7 6 2 2 4 7 8 5 1 3 6 4 1 1 2 5 6 7 9 10 9 7 4 2 1 0 2 4 4 6 9 6 0 2 3 10 16 19 20 20 20 18 19 20 21 23 25 25 24 24 22 21 21 20 19 18 18 18 18 18 18 17 17 16 15 14 15 16 14 12 11 11 11 12 12 11 10 10 10 9 10 10 9 8 6
8 8 8 5 2 3 3 5 4 1 1 3 6 3 1 2 2 4 6 7 9 9 7 5 3 2 1 1 2 4 5 5 7 7 8 8 8 10 15 19 20 20 18 17 18 20 21 24 25 25 23 21 21 21 21 20 19 19 19 20 20 19 19 18 17 15 13 13 12 12 13 13 12 11 10 11 12 12 12 12 12 11 11 11 8 7 5
7 7 8 5 3 1 5 4 2 4 3 2 2 1 3 4 4 4 5 7 8 7 6 5 4 4 2 2 2 6 4 2 5 7 8 10 11 12 14 16 16 16 16 18 19 19 21 24 25 24 22 20 20 21 20 20 20 20 20 20 20 20 19 18 17 15 13 13 13 11 11 12 11 10 10 11 12 13 13 13 13 12 11 10 9 8 8
7 8 7 5 2 3 6 4 3 5 3 1 3 1 4 3 5 5 3 6 7 5 5 6 6 6 5 2 4 7 4 1 2 6 9 11 13 14 14 13 13 13 14 17 19 19 21 22 23 23 22 21 21 21 20 21 21 21 21 21 21 20 18 16 17 17 15 13 12 11 10 10 10 10 11 11 12 12 13 13 12 12 12 11 10 10 10
5 6 3 1 1 1 3 2 1 2 4 6 3 4 6 1 4 4 2 5 6 4 5 7 7 6 4 2 4 6 4 2 3 6 10 12 13 14 14 13 13 12 13 15 18 19 20 21 22 23 22 21 21 20 21 22 21 21 22 22 20 20 19 17 17 17 16 14 11 9 10 10 9 10 10 11 13 13 14 14 13 12 12 12 11 11 12
1 2 4 5 4 4 5 2 4 5 5 7 3 5 2 3 3 3 5 7 7 4 6 8 7 3 1 1 3 3 5 5 6 8 11 12 11 12 13 14 13 13 12 14 16 18 19 19 21 22 20 20 20 20 21 22 22 21 22 22 21 19 19 19 18 16 15 14 10 9 11 11 9 10 11 13 14 14 14 14 13 12 12 12 12 13 12
3 4 5 4 5 2 5 6 1 1 3 6 4 1 4 4 1 3 6 5 5 7 7 7 7 4 2 3 5 6 5 5 6 8 10 12 12 11 12 13 13 13 13 13 14 17 18 19 20 20 19 20 20 20 21 21 21 21 22 22 21 19 18 18 17 15 14 13 11 10 11 11 10 11 12 12 13 13 14 13 13 14 13 12 12 13 13
3 2 3 5 3 2 4 8 6 4 3 6 7 5 4 1 1 3 6 5 6 10 8 6 8 7 4 4 6 6 6 6 7 8 8 10 13 13 13 13 12 13 15 13 13 15 16 18 18 18 19 20 21 21 21 20 21 23 23 21 19 18 18 18 16 15 15 14 12 11 11 11 11 11 12 12 13 14 14 14 15 15 14 13 13 13 13
4 2 5 3 4 5 4 5 5 5 5 9 10 5 2 2 2 3 5 4 6 8 8 7 7 8 8 7 6 5 7 7 7 8 8 8 10 13 14 13 13 14 15 15 14 13 13 15 16 16 17 19 20 20 20 20 22 24 24 21 19 17 17 17 16 14 14 14 13 13 13 12 12 13 13 14 14 15 16 16 16 15 14 14 13 12 13
7 3 10 11 5 3 2 0 2 1 6 9 9 3 4 2 2 3 4 4 3 6 10 8 4 5 7 7 5 5 8 8 7 7 7 7 10 12 12 11 12 12 14 15 15 13 12 13 12 12 14 15 17 19 20 19 21 23 22 20 19 17 17 16 15 15 15 15 14 14 14 15 14 14 15 15 14 14 15 16 17 17 16 14 12 11 12
8 4 8 9 5 3 3 7 6 5 8 8 5 4 8 4 5 3 2 3 4 7 9 6 4 4 5 5 5 7 8 9 9 9 8 9 11 12 10 9 10 11 12 16 17 15 14 13 11 11 13 15 16 19 19 19 20 21 20 19 18 17 16 15 14 14 15 16 16 16 15 16 15 15 15 16 15 14 12 11 11 13 14 15 14 13 14
1 4 6 4 0 1 2 1 5 9 6 3 4 6 7 2 6 2 1 3 6 7 5 2 3 6 5 4 7 9 8 10 11 11 10 11 12 11 9 9 10 11 12 14 16 16 15 14 13 13 14 15 17 17 18 18 19 19 20 19 17 16 16 17 17 16 15 16 19 19 16 14 15 16 15 15 15 16 16 15 14 13 14 15 16 17 19
8 8 6 5 1 1 4 8 9 7 3 1 3 5 3 3 4 2 3 6 6 5 5 4 5 6 5 5 8 10 10 11 12 12 11 11 11 11 10 10 11 12 13 14 15 15 14 14 15 15 14 15 17 16 17 19 19 20 20 19 16 17 19 19 18 18 16 13 14 17 16 13 13 13 12 12 14 15 15 17 19 19 19 19 20 21 22
9 8 7 5 2 2 3 4 5 6 6 4 2 1 3 5 4 5 6 6 6 6 6 6 6 6 6 8 9 9 11 12 12 13 12 11 11 12 12 12 12 13 13 13 14 14 13 13 15 16 14 15 17 17 16 17 19 20 20 18 17 18 20 18 14 13 12 8 7 11 15 15 13 12 11 10 11 13 13 15 17 18 18 18 19 20 20
10 9 7 2 3 4 2 2 3 6 7 5 4 6 8 8 8 7 6 5 7 9 8 7 7 7 7 9 9 9 10 12 14 14 12 11 11 12 13 13 13 12 12 12 12 13 13 14 16 15 13 14 17 17 16 16 17 19 19 18 17 17 18 16 13 10 8 6 6 9 12 12 12 12 11 11 10 10 10 11 13 15 16 16 15 15 17
8 8 8 4 2 2 2 3 2 5 8 8 7 6 5 7 8 7 6 7 10 12 11 10 8 7 7 8 8 8 10 12 13 11 10 9 11 12 14 14 13 12 12 12 12 12 13 14 15 14 13 15 17 16 15 16 17 17 18 18 17 14 12 12 13 10 8 8 9 9 10 9 8 8 9 10 10 10 10 10 11 13 14 14 14 15 17
5 5 6 4 3 3 1 4 3 5 7 7 8 7 7 8 8 7 8 10 11 11 11 9 8 7 7 7 7 8 9 10 9 8 7 6 8 12 16 17 14 13 13 12 11 12 13 13 13 13 13 15 16 15 14 15 16 17 17 17 15 11 8 9 9 9 10 11 11 10 9 9 9 9 9 10 11 11 12 13 14 14 14 14 15 16 17
4 4 4 2 3 8 8 5 4 5 6 7 9 9 9 9 8 8 8 8 8 7 7 7 7 6 7 8 8 8 8 8 7 7 7 7 9 14 17 17 16 15 14 13 12 13 13 14 13 13 14 16 17 16 16 16 16 15 15 13 11 9 9 10 9 7 8 10 12 11 10 10 10 10 11 11 11 11 11 12 12 12 14 15 15 15 15
5 4 3 2 2 6 9 7 6 7 6 7 8 7 7 8 9 9 8 7 6 6 7 8 7 5 5 8 8 7 8 8 8 8 8 8 10 13 16 17 17 14 13 13 14 14 14 14 14 14 15 17 18 17 16 15 14 12 11 11 10 9 9 12 14 11 8 9 10 9 9 10 10 10 10 11 11 10 11 12 12 13 15 16 15 14 14
5 5 5 3 8 10 9 7 6 8 7 6 7 6 9 10 9 9 9 8 6 6 7 7 6 6 6 8 7 6 7 9 8 8 9 9 10 13 16 17 16 14 12 14 14 14 13 13 13 13 13 13 13 14 15 14 12 11 11 11 11 9 6 9 14 12 9 9 9 9 10 10 11 11 11 11 11 10 11 13 14 14 15 14 13 14 15
6 8 10 12 12 10 9 7 6 6 6 6 6 6 9 11 9 8 9 8 7 8 8 6 6 6 8 9 7 6 8 10 8 7 9 10 11 12 13 13 13 14 15 15 14 13 12 11 12 11 12 12 11 11 13 15 13 11 11 11 12 11 9 9 10 10 9 9 9 9 11 11 11 11 11 11 11 12 12 13 14 14 14 13 13 14 15
4 8 11 12 9 9 10 8 7 6 6 6 5 5 7 9 8 8 8 9 8 8 7 6 6 8 9 8 7 8 10 10 8 8 9 11 11 12 11 11 13 15 15 15 14 13 12 11 11 11 11 12 11 11 12 14 13 11 10 10 11 11 13 15 13 10 9 10 9 9 10 10 10 11 11 11 12 12 12 13 14 14 13 14 15 16 17
8 10 8 7 7 9 10 8 6 5 5 5 6 6 6 9 11 10 10 9 8 6 7 8 8 8 8 7 8 9 8 8 7 8 10 11 11 11 11 12 13 15 15 14 14 13 11 11 12 13 12 11 10 11 11 12 12 11 10 10 10 11 13 18 17 13 10 10 10 10 10 10 10 10 11 11 12 12 12 13 14 13 13 15 17 18 19
12 12 8 8 8 10 11 9 7 6 6 5 7 7 6 10 14 12 10 10 9 7 8 9 8 8 8 8 8 8 8 7 6 9 11 11 12 12 12 13 13 14 15 14 13 13 12 11 11 13 13 12 11 11 12 13 13 13 12 12 12 11 12 16 17 14 11 10 10 11 11 11 11 12 12 12 12 13 14 14 13 14 15 17 16 15 15
13 11 7 6 6 8 11 10 8 7 6 5 6 8 9 12 15 13 11 11 11 9 8 9 8 8 9 8 8 8 9 8 8 9 11 12 12 13 13 13 14 14 13 12 12 12 12 11 11 12 13 14 14 12 11 11 13 15 16 15 13 12 12 14 16 14 11 9 10 10 11 11 12 12 12 13 14 14 13 13 14 16 17 15 12 12 15
12 9 5 4 4 5 8 10 9 8 7 5 6 9 12 13 15 14 12 12 12 10 9 9 8 7 7 8 8 7 6 6 6 9 11 12 12 12 12 13 13 12 11 11 12 12 12 12 12 12 12 13 13 10 9 9 9 12 15 15 12 9 10 11 10 9 9 10 11 11 11 11 11 12 13 14 14 14 14 15 16 14 12 10 11 15 18
10 7 5 5 4 4 5 10 10 9 9 8 10 13 15 14 14 14 13 12 12 11 9 7 7 7 6 6 7 6 5 5 6 11 13 12 12 12 11 12 12 12 11 12 13 13 13 13 13 12 12 12 10 8 12 12 9 8 9 10 9 8 9 9 9 9 10 11 11 11 11 11 12 13 13 13 13 14 13 11 10 8 10 13 16 18 18
8 6 5 5 3 2 4 9 9 9 11 12 12 13 15 15 14 13 13 12 11 11 9 7 7 7 6 4 4 5 5 6 8 11 12 11 12 11 10 11 12 12 12 13 13 13 15 15 13 11 12 12 9 8 13 14 10 8 8 9 9 9 9 10 10 10 10 10 10 11 11 11 11 12 13 14 14 13 8 4 6 11 15 19 20 19 18
6 6 6 6 4 3 3 6 7 8 13 15 15 14 15 15 13 13 13 13 11 11 11 10 8 7 6 4 4 5 6 7 10 11 10 10 10 10 9 10 12 13 13 13 12 13 17 16 12 10 11 12 10 10 16 16 12 9 8 8 9 10 10 9 10 9 9 10 11 11 11 12 14 16 16 14 11 7 5 7 11 16 18 18 16 16 16
5 5 4 4 4 4 4 4 7 11 15 16 16 16 15 14 11 10 12 14 13 11 11 11 10 8 7 6 6 7 7 8 10 11 11 11 11 10 9 11 13 12 10 10 10 13 16 14 10 10 12 12 9 10 15 17 12 7 5 6 8 9 9 9 9 9 9 9 9 10 12 15 16 13 8 4 3 6 10 14 14 13 13 12 12 13 14
7 6 4 3 3 5 5 6 9 13 14 14 16 15 13 14 12 9 10 13 14 12 11 12 11 9 8 8 7 7 8 9 11 12 12 12 11 10 9 12 14 12 9 9 10 11 12 11 9 10 12 12 10 10 15 16 12 7 6 6 7 8 8 8 8 8 8 9 10 10 12 11 6 1 3 5 7 9 13 14 10 8 9 10 11 11 11
10 9 6 4 4 6 6 7 12 14 13 13 14 13 12 12 11 10 11 12 12 11 11 12 11 10 10 10 9 9 9 10 11 11 11 11 9 6 6 11 15 14 12 11 10 9 9 10 10 10 9 8 8 10 13 13 10 8 7 7 8 8 7 7 7 7 9 10 10 7 4 6 9 10 10 10 10 10 11 11 8 6 8 9 8 9 9
11 10 8 6 6 6 7 10 13 13 11 11 13 13 12 11 11 12 13 13 12 11 11 11 12 11 11 11 10 10 10 11 10 10 10 10 8 6 7 10 13 14 13 11 10 9 10 10 12 12 11 8 6 8 9 8 7 8 8 8 8 7 7 8 9 9 9 8 6 7 9 10 9 10 10 7 7 8 9 10 7 6 6 6 7 9 10
10 11 12 11 9 7 9 11 11 11 12 13 13 13 12 12 12 13 14 13 13 13 13 12 12 12 12 11 11 10 10 10 11 11 10 8 7 9 11 11 11 12 13 11 9 9 10 10 11 13 12 9 7 7 7 7 7 8 8 8 8 8 8 8 7 4 3 5 8 9 9 6 5 5 5 4 5 6 6 6 7 8 7 7 8 9 9
10 12 15 14 11 9 11 12 12 12 13 13 11 11 12 11 11 12 13 12 12 13 14 14 13 14 13 12 12 11 9 9 12 12 8 2 4 12 16 14 11 11 12 10 8 8 9 10 12 11 9 7 6 6 7 7 7 8 8 8 7 5 3 3 4 5 5 6 6 6 7 8 7 4 2 3 4 2 2 6 7 6 5 5 7 7 7
12 13 14 13 12 11 12 13 13 12 11 9 7 8 10 9 7 8 10 10 11 11 12 12 13 14 12 11 13 14 11 10 11 12 7 3 8 15 17 13 10 11 11 9 7 8 11 13 12 8 6 6 6 6 6 7 7 7 5 3 2 3 4 6 6 5 5 6 5 5 8 9 7 3 0 1 1 3 5 6 5 4 4 6 7 6 5
13 14 14 14 14 13 13 12 12 10 9 8 7 8 9 9 6 5 6 8 10 11 11 12 13 12 11 10 13 15 13 10 9 11 11 9 11 16 17 12 10 12 11 9 7 8 10 10 9 6 4 5 6 7 6 6 4 3 0 3 6 6 5 5 4 5 7 9 8 7 7 7 5 4 4 4 5 5 5 5 5 6 7 7 6 4 5
14 15 15 14 14 13 12 11 9 8 9 10 10 11 11 10 6 2 1 3 7 10 12 13 13 13 12 11 11 12 13 11 6 5 8 10 10 14 18 17 14 13 12 10 8 8 9 8 5 4 3 4 6 6 5 3 1 1 1 2 4 4 3 4 7 8 10 10 9 8 8 7 5 4 4 4 4 4 4 4 5 6 6 5 4 4 4
13 14 13 12 13 13 12 10 9 9 11 11 12 14 15 12 6 3 3 7 12 13 13 13 13 12 12 12 10 11 14 13 7 4 5 6 4 6 13 17 16 14 12 10 9 10 11 9 5 4 5 6 6 4 2 2 2 1 1 3 5 5 6 8 10 10 10 10 10 8 7 6 4 4 4 3 1 2 4 5 5 5 4 3 3 4 4
11 11 11 11 12 13 13 12 12 13 13 12 13 15 17 15 13 13 16 19 19 17 13 13 13 12 12 12 11 10 12 13 8 5 6 6 5 5 11 14 13 11 9 8 8 10 12 11 8 7 6 6 5 3 2 1 1 2 4 8 11 9 9 10 11 10 10 9 8 7 6 5 3 2 1 3 5 6 6 5 5 4 3 3 4 4 5
11 10 10 10 11 11 10 11 14 16 15 13 13 14 16 16 16 17 19 19 18 15 13 13 13 13 12 12 11 11 13 11 9 7 7 8 10 9 11 13 11 9 7 8 9 8 8 8 8 7 6 6 6 6 5 4 5 7 9 11 11 10 10 11 11 9 9 8 7 6 4 4 4 5 6 6 6 5 5 5 4 3 3 4 4 5 5
Wind_Direction
245 257 257 244 242 252 272 294 296 264 256 243 236 259 282 297 304 55 85 91 97 96 103 110 100 73 53 45 43 83 128 134 132 135 136 133 135 137 134 137 139 131 131 130 116 116 116 104 103 112 117 128 142 143 141 148 156 155 152 154 160 157 147 147 152 155 154 153 158 162 154 154 164 162 153 153 147 141 161 199 199 166 148 161 193 152 155
253 251 254 254 262 264 255 264 282 278 268 276 285 274 274 305 10 77 86 92 98 79 52 84 78 45 36 23 28 38 50 78 97 122 141 148 154 160 151 145 146 143 141 136 125 123 121 112 117 124 128 140 152 146 143 152 158 156 157 158 155 149 147 150 152 152 153 154 158 161 155 158 170 162 156 163 152 146 176 209 188 167 147 183 218 198 179
254 244 252 254 253 269 273 266 265 272 279 297 302 298 310 341 43 83 84 86 96 70 358 28 43 30 22 23 33 37 29 24 26 31 126 159 158 167 168 151 147 152 150 138 125 123 126 127 133 138 137 145 152 150 152 158 156 156 163 160 149 146 148 149 149 149 151 154 157 158 157 163 174 167 164 172 155 144 170 210 189 177 207 220 233 245 247
261 240 239 238 228 250 267 266 270 294 306 306 300 294 311 344 34 80 76 74 107 142 194 138 82 43 36 34 36 47 43 24 8 356 325 251 175 170 169 148 143 154 152 134 122 125 135 141 145 146 142 142 148 150 152 155 154 156 161 155 145 145 146 145 145 148 151 155 156 156 158 165 175 173 166 172 165 151 168 196 196 187 198 218 253 291 310
275 259 234 225 243 256 259 279 321 330 314 305 303 293 325 29 34 37 35 54 129 154 170 150 117 83 58 45 40 68 79 64 16 312 284 265 207 180 165 145 145 152 141 127 130 142 149 148 147 148 144 141 145 149 149 152 155 155 152 147 143 143 143 143 146 153 153 151 153 157 162 166 171 175 169 169 175 174 176 191 199 198 206 221 235 264 293
263 273 262 214 256 257 271 350 319 292 292 316 327 320 32 68 77 100 339 88 128 151 164 133 101 80 65 63 90 115 130 143 166 226 246 242 208 186 165 149 147 146 138 134 142 154 156 144 140 144 143 141 144 147 147 150 154 153 148 144 142 143 143 144 151 154 150 152 158 163 169 171 171 178 179 167 172 187 195 201 203 198 212 229 223 230 252
260 282 291 254 248 251 318 307 212 248 311 313 317 330 2 49 114 145 150 137 143 140 110 102 100 94 83 78 99 119 132 137 171 230 240 227 196 180 164 154 149 144 145 148 151 156 156 144 140 143 145 143 144 144 143 148 154 152 146 144 144 144 144 149 156 156 154 159 164 166 171 172 170 178 183 174 180 194 198 201 205 204 216 230 226 226 230
255 253 243 245 258 211 242 247 263 10 306 279 297 344 341 327 348 132 129 129 132 111 99 102 99 106 116 98 88 82 62 104 228 238 235 225 210 180 156 149 146 147 152 155 155 155 155 149 144 146 148 148 146 143 146 153 156 152 147 147 148 147 149 157 162 161 160 162 163 166 170 171 176 183 179 179 196 204 201 203 205 201 208 227 230 228 228
247 251 238 228 70 215 247 250 320 330 319 325 334 1 339 342 18 56 76 98 110 96 89 88 82 93 104 62 76 117 176 217 233 260 317 290 201 160 147 140 140 146 152 153 152 152 154 155 152 150 151 152 150 149 154 157 155 152 151 151 151 152 156 162 164 163 164 164 163 169 174 175 186 192 177 179 202 209 210 227 223 201 204 224 227 224 229
228 250 254 239 197 233 272 282 256 256 311 349 330 297 89 45 52 72 88 97 101 97 92 90 88 92 65 10 39 157 176 183 181 21 5 356 136 142 132 130 135 143 148 148 149 152 156 157 156 154 154 155 153 154 158 158 154 153 153 152 154 156 158 163 162 159 164 166 162 172 184 181 185 188 175 181 205 210 214 236 244 228 229 234 229 230 237
230 236 249 255 239 205 237 249 241 240 265 329 303 288 43 50 78 109 123 122 122 124 126 128 127 116 26 351 58 94 142 106 69 47 19 351 168 135 121 128 138 143 143 144 148 153 156 155 155 158 158 157 156 158 161 159 155 155 155 154 156 157 159 162 162 160 168 173 168 175 189 188 188 192 182 184 205 217 222 235 242 248 256 252 245 248 240
244 240 240 253 250 146 201 233 238 242 333 325 288 265 207 191 103 96 107 134 140 136 137 141 138 133 235 237 63 44 44 71 80 85 102 250 175 135 129 134 138 137 139 145 150 155 157 154 155 159 161 159 160 162 162 159 158 159 159 158 158 157 158 161 162 163 169 174 171 174 180 184 198 206 193 188 205 217 225 233 235 239 247 249 256 266 252
233 235 246 256 141 129 268 272 270 332 48 286 285 286 135 165 138 95 90 113 124 131 145 151 145 143 239 263 111 82 59 76 106 146 173 163 147 143 139 134 133 138 144 150 154 158 158 157 159 162 162 162 164 163 161 161 164 164 162 161 158 157 159 161 162 162 161 164 169 173 174 181 200 211 198 195 210 219 223 230 237 241 247 254 268 291 295
236 233 248 252 187 59 338 325 360 17 4 289 326 40 155 170 140 109 101 116 127 142 145 119 111 141 170 317 102 116 114 132 143 149 146 131 125 131 132 131 139 148 151 151 155 158 158 160 164 165 166 166 164 164 163 165 168 166 164 163 160 159 161 159 157 159 159 161 168 172 173 182 195 202 199 204 216 224 228 236 243 247 255 265 273 280 282
241 238 247 251 217 25 357 339 4 13 10 79 49 325 238 189 139 141 142 134 138 141 120 99 98 123 130 91 83 100 95 331 177 152 143 131 126 130 135 144 152 154 155 157 156 156 160 165 168 171 172 168 165 168 170 169 169 166 165 165 163 163 165 159 155 158 160 162 170 171 171 180 195 202 205 212 221 227 234 241 244 246 254 263 268 272 275
241 238 239 244 208 268 312 310 75 98 126 114 98 275 280 24 128 156 133 122 137 130 105 106 98 86 95 100 86 99 122 197 221 172 148 137 140 146 150 155 156 155 161 161 154 154 163 168 170 174 174 168 168 173 172 170 171 167 164 166 167 167 167 166 166 164 161 165 174 173 170 180 197 207 212 218 226 233 237 240 244 249 253 258 261 262 265
62 172 139 140 176 230 281 281 150 159 142 118 145 261 312 67 117 133 108 129 153 127 86 100 106 88 54 107 89 115 158 173 179 166 148 143 156 163 156 154 155 154 159 159 152 154 163 169 171 174 173 168 171 175 172 173 175 168 163 167 172 171 169 171 176 175 170 172 176 173 176 184 197 212 220 223 228 235 236 238 245 251 252 255 256 255 256
110 117 122 156 176 187 299 309 354 140 138 134 161 290 62 92 168 121 118 147 152 119 109 120 129 140 177 180 177 180 171 154 151 151 147 150 160 164 156 156 159 156 154 157 155 155 164 172 173 173 172 169 170 172 171 170 170 166 165 168 171 171 169 172 178 181 180 181 182 180 185 192 203 218 225 223 227 233 235 237 243 249 251 254 256 257 259
175 168 195 250 271 57 346 330 349 353 14 74 65 31 38 41 306 94 120 141 130 127 140 142 126 127 158 214 208 177 149 143 149 150 153 159 162 161 158 160 165 159 152 157 164 163 167 173 174 176 178 174 170 169 167 163 162 164 168 171 170 169 169 172 178 185 187 189 192 193 194 198 209 223 226 223 226 230 232 233 236 240 245 247 251 260 266
224 182 126 104 35 53 46 16 13 348 4 64 72 43 324 296 357 78 109 118 131 142 142 127 124 141 165 193 204 168 141 142 147 150 158 160 154 153 155 161 167 163 154 157 165 164 162 167 173 180 182 178 173 168 161 160 165 169 172 176 177 173 171 173 178 187 193 196 199 201 202 206 216 224 223 221 223 226 231 235 235 239 243 241 243 252 262
237 183 114 109 97 69 41 322 195 2 21 54 72 33 282 230 128 95 92 82 89 117 114 116 145 168 167 179 181 143 137 140 140 145 154 149 139 140 148 159 167 165 158 157 158 156 156 161 168 177 181 180 178 171 163 165 175 177 177 181 184 183 180 179 181 189 198 201 202 205 205 207 219 231 231 228 228 228 231 231 230 235 243 246 245 252 262
230 192 139 136 138 149 235 247 208 124 62 55 66 291 267 212 119 92 101 102 96 104 111 132 169 149 145 163 143 122 130 134 129 135 147 145 137 136 143 161 169 165 159 157 153 150 153 160 168 179 184 180 177 175 172 175 182 183 183 186 189 186 183 184 188 195 202 203 204 208 208 205 210 229 242 246 249 249 247 243 235 235 242 244 244 250 260
10 93 136 154 251 203 207 308 89 99 92 116 170 245 270 147 109 119 229 113 99 98 99 115 137 127 134 149 129 121 121 121 127 142 153 148 140 140 147 160 162 157 154 153 151 148 153 162 171 178 181 178 176 178 182 185 185 184 185 188 188 181 181 189 196 201 208 208 201 201 205 205 207 218 231 242 252 256 256 256 258 257 257 255 252 253 261
55 65 120 154 244 359 72 68 78 93 67 357 221 231 248 117 123 135 99 92 91 91 81 67 83 107 121 121 115 117 122 127 138 149 148 142 142 146 149 148 147 147 148 148 149 151 157 168 174 175 176 178 178 182 187 188 186 184 186 188 183 178 186 199 204 205 212 214 197 189 195 206 220 231 232 231 240 247 248 249 255 261 265 267 266 266 269
79 65 70 83 42 2 53 75 96 102 72 28 325 176 89 87 90 83 85 89 87 90 95 92 85 90 104 115 121 129 134 137 140 141 138 138 143 146 146 144 143 146 149 151 154 159 166 173 175 174 175 177 179 182 184 183 183 184 187 186 183 185 196 208 210 203 204 201 181 183 192 200 216 234 243 241 242 244 238 235 243 253 258 261 264 267 269
92 88 86 63 296 272 235 192 156 142 137 134 110 78 71 72 72 71 71 77 86 91 93 98 105 108 113 121 129 135 135 134 137 142 144 145 146 147 146 144 145 148 153 158 162 167 170 171 170 171 172 173 175 178 179 178 182 185 185 187 191 196 201 200 191 184 192 200 205 209 210 208 209 219 232 244 254 261 257 247 246 250 253 256 262 266 271
98 115 136 164 249 297 339 318 238 159 142 133 125 115 108 103 98 95 88 83 91 97 95 98 113 124 123 126 128 126 130 138 144 152 157 156 154 149 141 137 142 149 154 160 166 166 165 164 165 170 173 170 171 175 177 178 181 181 183 195 207 209 200 186 174 167 181 213 231 230 224 227 231 230 233 241 246 254 262 262 261 261 261 263 268 271 274
117 136 148 154 150 143 300 299 256 148 130 138 155 158 149 135 124 116 101 85 84 93 101 113 131 135 129 131 129 124 134 146 149 151 157 157 140 128 127 135 145 149 152 159 164 161 158 161 165 171 171 166 167 173 174 175 177 179 188 203 212 204 183 178 179 178 185 203 225 233 224 224 235 239 242 246 245 244 245 245 249 258 264 267 271 274 275
148 175 181 172 160 169 178 192 187 165 161 172 177 170 157 142 121 103 99 96 94 103 117 127 137 144 145 144 141 139 148 155 151 146 151 146 127 123 131 142 148 146 148 155 157 159 164 167 167 167 166 165 169 174 173 172 176 182 189 199 200 185 173 180 194 209 209 206 216 225 222 221 230 233 236 243 247 251 258 262 264 271 276 280 285 288 288
176 175 149 10 298 207 181 164 175 190 183 180 184 175 150 131 114 107 111 115 118 129 131 127 138 168 164 143 144 159 159 149 143 143 143 139 130 128 132 137 138 139 146 152 155 164 174 176 172 170 168 170 175 176 171 169 176 181 182 186 191 194 189 183 186 202 226 224 222 226 224 224 234 238 240 245 249 253 264 272 276 278 280 282 287 292 294
164 145 135 201 234 211 176 153 177 192 179 174 190 174 132 116 112 116 119 118 123 133 133 135 156 174 151 139 158 179 156 138 138 140 134 130 128 128 128 130 134 141 150 153 157 167 174 172 169 167 165 167 175 177 168 162 171 181 179 182 197 214 209 181 178 191 214 222 220 224 227 229 233 236 238 245 253 258 262 267 270 273 276 280 286 290 293
165 174 189 215 218 187 155 154 177 184 172 175 188 165 129 121 124 129 127 128 136 139 140 151 164 151 136 140 157 154 134 134 146 147 138 136 139 140 138 138 141 146 151 155 161 165 164 160 157 160 164 170 177 177 164 157 168 185 184 182 196 212 214 199 190 196 215 226 225 224 227 230 234 237 239 243 250 257 263 268 272 276 281 286 290 291 292
210 216 206 212 202 162 152 166 176 178 184 180 161 131 121 124 128 127 123 125 136 145 146 145 136 128 131 137 136 131 134 144 154 156 153 152 154 155 154 151 149 148 152 159 162 161 162 165 163 164 172 179 181 179 169 162 172 190 191 187 199 210 210 209 208 206 215 231 239 237 235 237 239 241 246 250 254 259 266 272 277 284 291 293 293 293 294
250 252 222 203 189 161 154 162 169 175 190 173 133 116 113 118 121 125 132 138 143 146 140 130 126 133 143 147 143 145 153 159 159 161 165 166 165 166 164 159 153 152 156 162 162 160 168 178 172 166 175 190 193 191 186 179 180 189 193 198 212 217 205 201 206 211 216 224 233 238 243 248 250 250 253 259 263 267 273 276 281 287 290 290 291 292 293
241 246 222 203 195 168 155 159 168 175 186 176 147 132 120 118 123 133 143 142 136 132 130 134 144 158 160 160 162 165 172 179 172 162 163 168 172 174 170 160 154 155 160 165 168 169 175 184 177 169 178 195 202 200 198 193 190 191 196 203 215 217 200 191 195 204 214 224 231 236 239 243 248 252 257 262 266 270 275 279 284 288 287 287 291 298 303
230 228 211 205 204 174 157 158 166 174 184 183 155 134 123 123 130 138 140 134 134 138 139 146 168 176 163 166 183 186 185 192 182 162 160 168 175 176 171 162 159 162 165 169 179 182 178 178 179 178 185 200 211 209 203 197 192 190 194 202 212 217 210 199 194 195 203 219 231 238 243 245 248 251 254 260 265 269 273 276 279 280 282 287 300 318 324
220 207 182 180 215 197 156 148 159 170 170 157 133 127 128 130 134 139 138 135 139 147 150 160 176 172 158 176 198 195 191 203 186 158 156 167 174 177 174 167 166 170 171 174 187 192 181 177 187 196 203 217 228 218 194 192 201 199 198 202 208 214 220 220 211 206 211 218 224 234 247 254 256 258 258 258 260 262 268 274 278 280 287 306 326 331 328
200 179 160 164 209 222 149 140 156 167 153 127 111 117 130 140 144 145 144 144 147 154 160 166 165 155 166 202 205 182 183 202 164 140 144 159 170 176 178 173 173 179 180 182 191 195 184 178 188 203 216 232 242 212 180 185 206 219 215 216 217 217 226 233 228 223 227 226 221 225 235 244 253 261 263 262 263 264 267 278 295 315 331 334 332 329 327
169 158 158 161 198 236 145 143 158 162 145 128 115 117 134 149 153 150 147 148 152 158 162 163 158 158 177 204 188 167 184 183 145 133 143 158 166 173 177 178 185 192 190 189 194 193 182 178 183 199 220 239 244 201 178 179 187 198 209 222 224 221 224 231 231 230 233 232 228 233 242 248 254 259 261 263 268 271 272 293 328 331 327 322 319 319 321
156 157 161 162 181 198 148 143 147 136 128 128 128 130 139 150 158 158 153 152 160 167 166 164 164 166 170 174 172 176 175 152 137 140 148 154 162 172 177 187 201 202 193 191 193 182 174 177 184 195 216 239 243 204 184 181 181 185 197 213 223 223 225 231 236 236 234 233 233 236 240 243 247 252 256 263 271 283 301 310 311 314 317 316 314 315 318
151 160 160 154 155 156 163 162 137 117 114 122 130 134 141 153 167 170 157 153 162 171 166 160 162 165 165 169 175 175 165 147 143 148 148 152 165 179 182 188 197 196 186 187 188 173 167 175 189 196 207 227 238 208 185 181 182 192 208 217 226 231 229 228 235 242 246 249 248 242 241 246 246 243 245 269 327 338 323 313 311 317 321 316 308 309 313
153 161 164 160 152 163 182 172 131 116 117 127 135 143 156 164 163 152 139 146 158 166 162 158 161 166 168 168 166 163 156 144 140 144 152 164 183 197 193 185 186 185 176 172 171 163 164 178 198 212 217 221 219 199 183 179 188 220 246 234 231 239 242 240 243 245 246 249 252 253 258 267 277 13 41 357 340 327 314 309 312 319 314 305 304 312 322
164 163 159 164 179 183 177 142 120 121 131 141 146 156 169 168 157 147 147 152 157 158 156 157 160 165 170 167 161 159 159 151 147 157 171 180 189 197 181 170 172 177 181 178 172 169 177 191 204 218 227 224 207 189 182 183 199 232 245 237 233 241 250 255 261 265 264 265 271 281 313 16 31 19 350 336 341 337 316 300 295 301 303 306 322 340 347
170 160 148 157 180 177 148 123 119 125 139 151 156 162 168 169 165 162 161 161 161 162 164 165 167 173 176 170 163 166 170 164 161 172 181 179 170 156 140 146 160 172 180 184 188 197 205 206 204 203 205 208 202 189 186 197 221 233 234 236 240 243 246 248 252 260 271 288 327 16 39 41 20 348 332 338 356 343 313 297 300 320 331 341 356 359 354
164 147 143 157 174 164 136 129 134 141 147 153 159 164 171 179 177 166 160 162 169 173 174 174 176 180 182 177 172 176 177 170 172 185 193 192 181 168 159 157 166 174 178 186 208 229 229 212 192 183 186 194 203 201 204 225 240 234 229 236 240 240 246 258 267 284 341 24 36 40 40 35 13 357 355 345 323 310 309 326 345 356 8 19 17 8 1
157 140 139 151 162 155 139 138 145 151 153 157 164 169 172 177 174 164 163 172 180 177 177 181 186 191 193 184 171 171 177 180 184 192 200 192 152 163 166 166 169 177 185 200 223 231 210 183 165 158 161 174 188 196 208 223 233 236 239 244 245 244 266 339 7 23 32 31 25 31 49 60 63 57 15 309 288 285 23 15 6 11 30 28 17 11 9
137 130 133 142 147 143 137 135 137 142 151 161 167 163 156 153 149 150 160 171 172 170 177 188 192 197 203 190 166 163 178 194 190 186 184 129 132 153 164 170 175 179 189 206 214 191 171 162 157 152 152 164 175 190 209 221 229 240 252 275 348 26 32 27 19 16 34 48 51 57 66 64 56 47 77 129 81 65 45 27 24 37 27 8 4 8 9
128 128 133 139 139 138 140 140 138 143 157 164 159 150 147 147 144 147 158 161 160 166 184 198 197 198 204 190 163 163 184 205 198 183 185 182 164 161 166 175 183 184 192 207 209 183 166 161 159 153 153 170 182 199 224 237 237 235 292 43 35 25 24 31 39 62 82 86 85 87 86 79 72 77 91 85 70 58 51 49 46 28 5 356 3 13 7
125 123 127 133 136 140 151 157 154 161 175 170 153 145 150 155 153 125 100 164 184 195 199 197 192 191 191 182 170 176 194 208 208 184 187 195 187 172 171 176 183 187 194 208 210 185 167 162 158 151 165 194 205 215 232 240 201 144 87 36 22 13 36 87 100 103 101 99 98 101 99 92 82 77 79 77 74 69 56 33 15 4 354 353 4 9 4
125 124 132 141 145 154 169 175 166 166 175 167 149 142 145 150 152 157 185 206 222 225 208 186 179 181 182 183 190 194 189 187 190 195 193 200 199 162 163 173 181 184 188 204 211 189 176 177 188 191 193 201 210 217 208 145 126 134 113 103 103 107 114 114 111 107 104 100 98 96 92 82 76 87 101 105 68 330 330 336 346 356 1 5 10 7 9
132 139 146 148 153 169 182 177 158 155 160 156 148 149 153 157 169 185 195 203 213 214 194 173 171 178 182 192 202 191 171 168 180 195 191 199 209 175 161 168 176 178 187 208 212 187 175 184 202 213 209 201 196 194 181 143 165 199 153 128 121 118 116 113 112 112 111 108 102 96 92 88 83 78 17 332 328 338 353 5 12 15 13 13 15 12 12
138 146 151 153 160 171 170 153 146 151 155 154 157 170 179 181 183 187 192 198 200 192 174 165 170 179 189 200 194 166 154 170 194 197 191 209 220 201 178 173 172 171 187 213 214 189 173 178 185 187 184 169 150 137 126 122 132 147 149 139 125 114 110 111 111 111 112 111 107 97 74 28 343 328 331 341 358 25 41 39 31 23 15 13 14 14 12